Location: Praha
(50.0830°N, 14.4670°E)
Time: 18:42:41
(UTC+02:00)

ISS - Pass Details

Date: 14 July 2021
Orbit: 419 x 421 km, 51.6° (Epoch: 02 August)

Event Time Altitude Azimuth Distance (km) Brightness Sun altitude
Rises 02:07:20 0° 280° (W) 2,370 0.0 -17.1°
Reaches altitude 10° 02:09:27 10° 283° (WNW) 1,505 -1.0 -17.0°
Maximum altitude 02:12:49 70° 7° (N) 451 -3.5 -16.8°
Drops below altitude 10° 02:16:11 10° 93° (E) 1,502 -0.8 -16.7°
Sets 02:18:17 0° 95° (E) 2,365 0.2 -16.6°
